Location: Gloden
(48.4833°N, 15.3167°E)
Time: 20:58:40
(UTC+00:00)

Cosmos 1536 - Pass Details

Date: 15 December 2019
Orbit: 540 x 559 km, 82.5° (Epoch: 22 January)

Event Time Altitude Azimuth Distance (km) Brightness Sun altitude
Rises 04:51:49 0° 183° (S) 2,734 6.5 -17.5°
Reaches altitude 10° 04:53:59 10° 181° (S) 1,843 5.7 -17.1°
Maximum altitude 04:58:01 72° 97° (E) 591 3.1 -16.5°
Drops below altitude 10° 05:02:05 10° 13° (NNE) 1,851 5.5 -15.8°
Sets 05:04:16 0° 12° (NNE) 2,749 6.3 -15.5°
